Regional Weather Roundup
Issued by NWS

Home | Current Version | Previous Version | Text Only | Print | Product List | Glossary Off
Versions: 1 2 3 4 5 6 7 8 9 10 11 12 13 14 15 16 17 18 19 20 21 22 23 24 25 26 27 28 29 30 31 32 33 34 35 36 37 38 39 40 41 42 43 44 45 46 47 48 49 50

000
ASUS45 KBOI 020410
RWRID
WEATHER ROUNDUP FOR IDAHO
NATIONAL WEATHER SERVICE BOISE ID
1000 PM MDT MON SEP 01 2014

NOTE: "FAIR" INDICATES FEW OR NO CLOUDS BELOW 12000 FEET
WITH NO SIGNIFICANT WEATHER AND/OR OBSTRUCTIONS TO VISIBILITY

IDZ012-014-020500-
SOUTHWEST IDAHO


CITY           SKY/WX    TMP DP  RH WIND       PRES   REMARKS
BOISE          CLEAR     65  36  34 S5        29.99R
CALDWELL       CLEAR     64  37  36 S3        29.99S
MOUNTAIN HOME  CLEAR     61  35  36 W6        30.00S
$$

IDZ016-017-020500-
SOUTHCENTRAL IDAHO


CITY           SKY/WX    TMP DP  RH WIND       PRES   REMARKS
BURLEY         CLEAR     54  43  66 S6        30.05R
JEROME         CLEAR     63  37  38 SW7       30.05R
TWIN FALLS     CLEAR     56  41  57 S8        30.06R
$$

IDZ019>023-020500-
SOUTHEAST IDAHO


CITY           SKY/WX    TMP DP  RH WIND       PRES   REMARKS
IDAHO FALLS    CLEAR     62  38  40 S9        30.07S
POCATELLO      CLEAR     55  37  50 S8        30.07S
REXBURG        CLEAR     57  40  52 S7        30.07S
$$

IDZ006-010-011-018-031-032-020500-
CENTRAL IDAHO MOUNTAINS


CITY           SKY/WX    TMP DP  RH WIND       PRES   REMARKS
MCCALL         CLEAR     53  35  50 NE6       30.07S
HAILEY         CLEAR     57  36  44 CALM      30.10R
STANLEY          N/A     46  32  58 S6        30.15R
SALMON         CLEAR     57  43  58 SE5       29.98R
CHALLIS        CLEAR     66  30  26 W6        30.03R
$$

IDZ002-004-006-007-026-020500-
NORTHERN IDAHO


CITY           SKY/WX    TMP DP  RH WIND       PRES   REMARKS
LEWISTON       CLEAR     72  41  32 CALM      29.95R
LOWELL           N/A     58  50  75 CALM      30.00R
COEUR D`ALENE  CLEAR     61  39  44 S8        29.96S
MULLAN PASS    CLEAR     47  35  63 W6        30.09S
$$


USA.gov is the U.S. government's official web portal to all federal, state and local government web resources and services.